Time,TemperatureF,DewpointF,PressureIn,WindDirection,WindDirectionDegrees,WindSpeedMPH,WindSpeedGustMPH,Humidity,HourlyPrecipIn,Conditions,Clouds,dailyrainin,SoftwareType,DateUTC
2013-03-07 00:01:00,35.0,32.0,26.14,WSW,244,4.0,7.0,89,-99.99,,,-99.99,,2013-03-07 08:01:00,
2013-03-07 00:11:00,35.0,32.0,26.14,WSW,243,4.0,7.0,88,-99.99,,,-99.99,,2013-03-07 08:11:00,
2013-03-07 00:22:00,35.0,32.0,26.14,WSW,243,4.0,8.0,89,-99.99,,,-99.99,,2013-03-07 08:22:00,
2013-03-07 00:32:00,35.0,32.0,26.14,WSW,242,4.0,7.0,90,-99.99,,,-99.99,,2013-03-07 08:32:00,
2013-03-07 00:43:00,35.0,33.0,26.17,WSW,246,5.0,7.0,92,-99.99,,,-99.99,,2013-03-07 08:43:00,
2013-03-07 00:52:00,35.0,33.0,26.20,WSW,246,5.0,8.0,94,-99.99,,,-99.99,,2013-03-07 08:52:00,
2013-03-07 01:02:00,35.0,34.0,26.20,WSW,244,4.0,8.0,95,-99.99,,,-99.99,,2013-03-07 09:02:00,
2013-03-07 01:11:00,35.0,34.0,26.23,WSW,242,5.0,8.0,96,-99.99,,,-99.99,,2013-03-07 09:11:00,
2013-03-07 01:21:00,35.0,34.0,26.23,WSW,242,4.0,8.0,97,-99.99,,,-99.99,,2013-03-07 09:21:00,
2013-03-07 01:32:00,35.0,34.0,26.23,WSW,238,4.0,9.0,97,-99.99,,,-99.99,,2013-03-07 09:32:00,
2013-03-07 01:42:00,35.0,34.0,26.26,WSW,240,4.0,9.0,98,-99.99,,,-99.99,,2013-03-07 09:42:00,
2013-03-07 01:52:00,35.0,34.0,26.26,WSW,238,5.0,9.0,98,-99.99,,,-99.99,,2013-03-07 09:52:00,
2013-03-07 02:01:00,35.0,34.0,26.26,WSW,237,5.0,10.0,98,-99.99,,,-99.99,,2013-03-07 10:01:00,
2013-03-07 02:11:00,35.0,34.0,26.26,WSW,237,5.0,9.0,98,-99.99,,,-99.99,,2013-03-07 10:11:00,
2013-03-07 02:22:00,35.0,34.0,26.26,WSW,241,5.0,9.0,98,-99.99,,,-99.99,,2013-03-07 10:22:00,
2013-03-07 02:32:00,35.0,34.0,26.26,WSW,238,4.0,9.0,98,-99.99,,,-99.99,,2013-03-07 10:32:00,
2013-03-07 02:42:00,35.0,34.0,26.26,WSW,237,5.0,9.0,98,-99.99,,,-99.99,,2013-03-07 10:42:00,
2013-03-07 02:52:00,35.0,34.0,26.26,WSW,238,4.0,9.0,98,-99.99,,,-99.99,,2013-03-07 10:52:00,
2013-03-07 03:01:00,34.0,34.0,26.26,SW,234,4.0,10.0,98,-99.99,,,-99.99,,2013-03-07 11:01:00,
2013-03-07 03:11:00,35.0,34.0,26.26,WSW,237,5.0,9.0,98,-99.99,,,-99.99,,2013-03-07 11:11:00,
2013-03-07 03:22:00,35.0,34.0,26.26,WSW,238,4.0,9.0,98,-99.99,,,-99.99,,2013-03-07 11:22:00,
2013-03-07 03:32:00,35.0,34.0,26.26,WSW,239,5.0,9.0,98,-99.99,,,-99.99,,2013-03-07 11:32:00,
2013-03-07 03:42:00,35.0,34.0,26.26,WSW,239,6.0,12.0,98,-99.99,,,-99.99,,2013-03-07 11:42:00,
2013-03-07 03:52:00,35.0,34.0,26.26,WSW,237,5.0,13.0,98,-99.99,,,-99.99,,2013-03-07 11:52:00,
2013-03-07 04:11:00,35.0,34.0,26.26,SW,234,5.0,10.0,98,-99.99,,,-99.99,,2013-03-07 12:11:00,
2013-03-07 04:21:00,35.0,34.0,26.26,SW,234,5.0,12.0,98,-99.99,,,-99.99,,2013-03-07 12:21:00,
2013-03-07 04:32:00,35.0,34.0,26.26,WSW,240,5.0,10.0,98,-99.99,,,-99.99,,2013-03-07 12:32:00,
2013-03-07 04:42:00,35.0,34.0,26.26,SW,235,5.0,12.0,98,-99.99,,,-99.99,,2013-03-07 12:42:00,
2013-03-07 04:52:00,35.0,34.0,26.26,WSW,239,6.0,12.0,98,-99.99,,,-99.99,,2013-03-07 12:52:00,
2013-03-07 05:02:00,35.0,34.0,26.26,WSW,237,5.0,11.0,98,-99.99,,,-99.99,,2013-03-07 13:02:00,
2013-03-07 05:12:00,35.0,34.0,26.26,WSW,240,5.0,11.0,98,-99.99,,,-99.99,,2013-03-07 13:12:00,
2013-03-07 05:21:00,35.0,34.0,26.26,WSW,238,4.0,9.0,98,-99.99,,,-99.99,,2013-03-07 13:21:00,
2013-03-07 05:32:00,35.0,34.0,26.26,WSW,241,5.0,11.0,98,-99.99,,,-99.99,,2013-03-07 13:32:00,
2013-03-07 05:42:00,35.0,34.0,26.26,WSW,241,5.0,11.0,98,-99.99,,,-99.99,,2013-03-07 13:42:00,
2013-03-07 05:52:00,35.0,34.0,26.26,WSW,250,5.0,10.0,98,-99.99,,,-99.99,,2013-03-07 13:52:00,
2013-03-07 06:01:00,35.0,34.0,26.26,WSW,239,5.0,11.0,98,-99.99,,,-99.99,,2013-03-07 14:01:00,
2013-03-07 06:11:00,35.0,34.0,26.26,WSW,241,5.0,10.0,98,-99.99,,,-99.99,,2013-03-07 14:11:00,
2013-03-07 06:21:00,34.0,34.0,26.26,SW,234,4.0,8.0,98,-99.99,,,-99.99,,2013-03-07 14:21:00,
2013-03-07 06:32:00,34.0,34.0,26.26,WSW,238,4.0,9.0,98,-99.99,,,-99.99,,2013-03-07 14:32:00,
2013-03-07 06:42:00,34.0,34.0,26.26,WSW,239,5.0,9.0,98,-99.99,,,-99.99,,2013-03-07 14:42:00,
2013-03-07 06:52:00,34.0,34.0,26.26,WSW,237,5.0,11.0,98,-99.99,,,-99.99,,2013-03-07 14:52:00,
2013-03-07 07:02:00,34.0,34.0,26.26,WSW,238,5.0,9.0,98,-99.99,,,-99.99,,2013-03-07 15:02:00,
2013-03-07 07:11:00,34.0,34.0,26.26,WSW,237,5.0,10.0,98,-99.99,,,-99.99,,2013-03-07 15:11:00,
2013-03-07 07:22:00,34.0,34.0,26.26,WSW,239,5.0,9.0,98,-99.99,,,-99.99,,2013-03-07 15:22:00,
2013-03-07 07:32:00,34.0,33.0,26.23,SW,235,5.0,9.0,97,-99.99,,,-99.99,,2013-03-07 15:32:00,
2013-03-07 07:42:00,35.0,33.0,26.20,WSW,239,5.0,10.0,94,-99.99,,,-99.99,,2013-03-07 15:42:00,
2013-03-07 07:52:00,34.0,32.0,26.20,WSW,239,5.0,10.0,94,-99.99,,,-99.99,,2013-03-07 15:52:00,
2013-03-07 08:01:00,35.0,33.0,26.20,SW,233,4.0,10.0,94,-99.99,,,-99.99,,2013-03-07 16:01:00,
2013-03-07 08:11:00,35.0,34.0,26.20,WSW,242,4.0,9.0,95,-99.99,,,-99.99,,2013-03-07 16:11:00,
2013-03-07 08:21:00,35.0,34.0,26.23,WSW,237,4.0,10.0,96,-99.99,,,-99.99,,2013-03-07 16:21:00,
2013-03-07 08:32:00,35.0,34.0,26.23,SW,234,4.0,10.0,97,-99.99,,,-99.99,,2013-03-07 16:32:00,
2013-03-07 08:42:00,35.0,34.0,26.23,SW,234,5.0,13.0,97,-99.99,,,-99.99,,2013-03-07 16:42:00,
2013-03-07 08:52:00,36.0,35.0,26.26,WSW,239,4.0,8.0,97,-99.99,,,-99.99,,2013-03-07 16:52:00,
2013-03-07 09:01:00,36.0,35.0,26.26,WSW,237,5.0,12.0,97,-99.99,,,-99.99,,2013-03-07 17:01:00,
2013-03-07 09:11:00,36.0,35.0,26.26,SW,235,4.0,9.0,97,-99.99,,,-99.99,,2013-03-07 17:11:00,
2013-03-07 09:22:00,37.0,36.0,26.26,SW,230,4.0,9.0,97,-99.99,,,-99.99,,2013-03-07 17:22:00,
2013-03-07 09:32:00,37.0,36.0,26.26,SW,234,5.0,11.0,97,-99.99,,,-99.99,,2013-03-07 17:32:00,
2013-03-07 09:42:00,37.0,36.0,26.26,SW,233,5.0,10.0,97,-99.99,,,-99.99,,2013-03-07 17:42:00,
2013-03-07 09:52:00,36.0,35.0,26.26,SW,235,5.0,11.0,97,-99.99,,,-99.99,,2013-03-07 17:52:00,
2013-03-07 10:02:00,36.0,35.0,26.26,WSW,242,5.0,10.0,97,-99.99,,,-99.99,,2013-03-07 18:02:00,
2013-03-07 10:11:00,37.0,36.0,26.26,SW,233,5.0,10.0,97,-99.99,,,-99.99,,2013-03-07 18:11:00,
2013-03-07 10:21:00,37.0,36.0,26.26,SW,228,4.0,12.0,97,-99.99,,,-99.99,,2013-03-07 18:21:00,
2013-03-07 10:31:00,37.0,36.0,26.26,SW,233,5.0,11.0,97,-99.99,,,-99.99,,2013-03-07 18:31:00,
2013-03-07 10:42:00,37.0,36.0,26.23,SW,232,5.0,12.0,95,-99.99,,,-99.99,,2013-03-07 18:42:00,
2013-03-07 10:52:00,37.0,36.0,26.23,WSW,241,5.0,11.0,95,-99.99,,,-99.99,,2013-03-07 18:52:00,
2013-03-07 11:02:00,38.0,36.0,26.20,WSW,239,5.0,11.0,93,-99.99,,,-99.99,,2013-03-07 19:02:00,
2013-03-07 11:11:00,37.0,35.0,26.20,WSW,241,5.0,11.0,93,-99.99,,,-99.99,,2013-03-07 19:11:00,
2013-03-07 11:21:00,37.0,36.0,26.23,SW,236,4.0,9.0,96,-99.99,,,-99.99,,2013-03-07 19:21:00,
2013-03-07 11:33:00,37.0,36.0,26.23,SW,228,5.0,13.0,95,-99.99,,,-99.99,,2013-03-07 19:33:00,
2013-03-07 11:42:00,37.0,35.0,26.23,SW,236,6.0,11.0,94,-99.99,,,-99.99,,2013-03-07 19:42:00,
2013-03-07 11:52:00,37.0,36.0,26.23,WSW,239,4.0,11.0,96,-99.99,,,-99.99,,2013-03-07 19:52:00,
2013-03-07 12:01:00,37.0,36.0,26.23,WSW,239,4.0,11.0,96,-99.99,,,-99.99,,2013-03-07 20:01:00,
2013-03-07 12:12:00,37.0,36.0,26.23,WSW,240,4.0,9.0,95,-99.99,,,-99.99,,2013-03-07 20:12:00,
2013-03-07 12:21:00,36.0,35.0,26.23,SW,235,4.0,12.0,96,-99.99,,,-99.99,,2013-03-07 20:21:00,
2013-03-07 12:32:00,36.0,35.0,26.23,SW,228,4.0,8.0,96,-99.99,,,-99.99,,2013-03-07 20:32:00,
2013-03-07 12:42:00,37.0,35.0,26.20,SW,218,5.0,13.0,91,-99.99,,,-99.99,,2013-03-07 20:42:00,
2013-03-07 12:52:00,37.0,34.0,26.14,SW,221,5.0,14.0,88,-99.99,,,-99.99,,2013-03-07 20:52:00,
2013-03-07 13:01:00,37.0,34.0,26.14,SW,223,4.0,14.0,88,-99.99,,,-99.99,,2013-03-07 21:01:00,
2013-03-07 13:11:00,37.0,34.0,26.17,SW,219,4.0,12.0,90,-99.99,,,-99.99,,2013-03-07 21:11:00,
2013-03-07 13:22:00,37.0,34.0,26.14,SW,223,4.0,15.0,87,-99.99,,,-99.99,,2013-03-07 21:22:00,
2013-03-07 13:32:00,37.0,34.0,26.14,SW,231,4.0,10.0,88,-99.99,,,-99.99,,2013-03-07 21:32:00,
2013-03-07 13:42:00,37.0,34.0,26.14,SW,224,5.0,12.0,88,-99.99,,,-99.99,,2013-03-07 21:42:00,
2013-03-07 13:52:00,37.0,34.0,26.14,SW,226,4.0,12.0,87,-99.99,,,-99.99,,2013-03-07 21:52:00,
2013-03-07 14:01:00,37.0,34.0,26.14,SSW,209,4.0,12.0,87,-99.99,,,-99.99,,2013-03-07 22:01:00,
2013-03-07 14:11:00,37.0,33.0,26.11,SW,217,4.0,12.0,86,-99.99,,,-99.99,,2013-03-07 22:11:00,
2013-03-07 14:22:00,37.0,34.0,26.14,SW,231,4.0,13.0,87,-99.99,,,-99.99,,2013-03-07 22:22:00,
2013-03-07 14:32:00,36.0,33.0,26.14,SW,220,4.0,14.0,88,-99.99,,,-99.99,,2013-03-07 22:32:00,
2013-03-07 14:42:00,37.0,34.0,26.14,SW,234,4.0,11.0,87,-99.99,,,-99.99,,2013-03-07 22:42:00,
2013-03-07 14:52:00,35.0,33.0,26.17,SW,224,4.0,9.0,92,-99.99,,,-99.99,,2013-03-07 22:52:00,
2013-03-07 15:01:00,35.0,33.0,26.17,SW,224,4.0,9.0,92,-99.99,,,-99.99,,2013-03-07 23:01:00,
2013-03-07 15:12:00,35.0,33.0,26.17,SW,233,5.0,11.0,92,-99.99,,,-99.99,,2013-03-07 23:12:00,
2013-03-07 15:21:00,35.0,33.0,26.17,SW,219,4.0,10.0,93,-99.99,,,-99.99,,2013-03-07 23:21:00,
2013-03-07 15:32:00,35.0,33.0,26.20,SW,225,4.0,11.0,94,-99.99,,,-99.99,,2013-03-07 23:32:00,
2013-03-07 15:42:00,35.0,34.0,26.20,SW,229,5.0,11.0,95,-99.99,,,-99.99,,2013-03-07 23:42:00,
2013-03-07 15:52:00,34.0,32.0,26.20,SW,230,4.0,9.0,93,-99.99,,,-99.99,,2013-03-07 23:52:00,
2013-03-07 16:02:00,34.0,32.0,26.20,SW,230,4.0,9.0,93,-99.99,,,-99.99,,2013-03-08 00:02:00,
2013-03-07 16:11:00,34.0,32.0,26.17,SW,228,4.0,11.0,91,-99.99,,,-99.99,,2013-03-08 00:11:00,
2013-03-07 16:22:00,34.0,31.0,26.14,SW,221,4.0,12.0,89,-99.99,,,-99.99,,2013-03-08 00:22:00,
2013-03-07 16:42:00,34.0,31.0,26.14,SW,224,5.0,15.0,89,-99.99,,,-99.99,,2013-03-08 00:42:00,
2013-03-07 16:52:00,34.0,31.0,26.14,SW,230,5.0,13.0,90,-99.99,,,-99.99,,2013-03-08 00:52:00,
2013-03-07 17:01:00,34.0,31.0,26.14,SW,224,4.0,10.0,89,-99.99,,,-99.99,,2013-03-08 01:01:00,
2013-03-07 17:11:00,33.0,30.0,26.14,SW,230,5.0,11.0,90,-99.99,,,-99.99,,2013-03-08 01:11:00,
2013-03-07 17:21:00,33.0,31.0,26.17,SW,232,6.0,14.0,92,-99.99,,,-99.99,,2013-03-08 01:21:00,
2013-03-07 17:32:00,33.0,31.0,26.17,WSW,238,5.0,14.0,93,-99.99,,,-99.99,,2013-03-08 01:32:00,
2013-03-07 17:42:00,33.0,31.0,26.20,SW,232,4.0,10.0,94,-99.99,,,-99.99,,2013-03-08 01:42:00,
2013-03-07 17:51:00,33.0,32.0,26.20,WSW,238,5.0,10.0,95,-99.99,,,-99.99,,2013-03-08 01:51:00,
2013-03-07 18:01:00,32.0,31.0,26.20,SW,232,4.0,12.0,96,-99.99,,,-99.99,,2013-03-08 02:01:00,
2013-03-07 18:11:00,32.0,31.0,26.20,SW,233,5.0,11.0,96,-99.99,,,-99.99,,2013-03-08 02:11:00,
2013-03-07 18:21:00,32.0,31.0,26.23,SW,233,5.0,11.0,97,-99.99,,,-99.99,,2013-03-08 02:21:00,
2013-03-07 18:31:00,32.0,31.0,26.23,WSW,237,5.0,11.0,97,-99.99,,,-99.99,,2013-03-08 02:31:00,
2013-03-07 18:41:00,32.0,31.0,26.23,SW,235,5.0,13.0,97,-99.99,,,-99.99,,2013-03-08 02:41:00,
2013-03-07 18:52:00,32.0,32.0,26.23,WSW,237,6.0,10.0,98,-99.99,,,-99.99,,2013-03-08 02:52:00,
2013-03-07 19:01:00,32.0,32.0,26.23,SW,233,5.0,14.0,98,-99.99,,,-99.99,,2013-03-08 03:01:00,
2013-03-07 19:11:00,32.0,32.0,26.23,SW,231,4.0,11.0,98,-99.99,,,-99.99,,2013-03-08 03:11:00,
2013-03-07 19:22:00,31.0,31.0,26.23,SW,233,5.0,11.0,98,-99.99,,,-99.99,,2013-03-08 03:22:00,
2013-03-07 19:32:00,31.0,31.0,26.23,SW,232,4.0,10.0,98,-99.99,,,-99.99,,2013-03-08 03:32:00,
2013-03-07 19:42:00,31.0,31.0,26.23,SW,230,4.0,10.0,98,-99.99,,,-99.99,,2013-03-08 03:42:00,
2013-03-07 19:52:00,31.0,31.0,26.23,SW,228,3.0,8.0,98,-99.99,,,-99.99,,2013-03-08 03:52:00,
2013-03-07 20:01:00,31.0,31.0,26.23,SW,228,3.0,8.0,98,-99.99,,,-99.99,,2013-03-08 04:01:00,
2013-03-07 20:11:00,31.0,31.0,26.23,SW,233,4.0,10.0,98,-99.99,,,-99.99,,2013-03-08 04:11:00,
2013-03-07 20:21:00,31.0,31.0,26.23,SW,232,4.0,9.0,98,-99.99,,,-99.99,,2013-03-08 04:21:00,
2013-03-07 20:31:00,31.0,30.0,26.23,SW,227,4.0,8.0,97,-99.99,,,-99.99,,2013-03-08 04:31:00,
2013-03-07 20:42:00,31.0,30.0,26.23,SW,224,4.0,7.0,97,-99.99,,,-99.99,,2013-03-08 04:42:00,
2013-03-07 20:51:00,31.0,30.0,26.23,SW,227,4.0,8.0,97,-99.99,,,-99.99,,2013-03-08 04:51:00,
2013-03-07 21:01:00,31.0,30.0,26.23,SW,220,3.0,8.0,97,-99.99,,,-99.99,,2013-03-08 05:01:00,
2013-03-07 21:12:00,31.0,30.0,26.20,SW,215,3.0,11.0,97,-99.99,,,-99.99,,2013-03-08 05:12:00,
2013-03-07 21:22:00,31.0,30.0,26.20,SW,220,3.0,7.0,96,-99.99,,,-99.99,,2013-03-08 05:22:00,
2013-03-07 21:32:00,32.0,31.0,26.20,SW,221,4.0,8.0,96,-99.99,,,-99.99,,2013-03-08 05:32:00,
2013-03-07 21:42:00,32.0,31.0,26.20,SW,219,3.0,8.0,96,-99.99,,,-99.99,,2013-03-08 05:42:00,
2013-03-07 21:52:00,32.0,31.0,26.20,SW,226,4.0,10.0,96,-99.99,,,-99.99,,2013-03-08 05:52:00,
2013-03-07 22:01:00,32.0,31.0,26.20,SW,218,4.0,9.0,97,-99.99,,,-99.99,,2013-03-08 06:01:00,
2013-03-07 22:11:00,32.0,31.0,26.23,SW,216,3.0,9.0,97,-99.99,,,-99.99,,2013-03-08 06:11:00,
2013-03-07 22:21:00,32.0,31.0,26.23,SW,217,3.0,8.0,97,-99.99,,,-99.99,,2013-03-08 06:21:00,
2013-03-07 22:31:00,33.0,32.0,26.23,SSW,211,3.0,6.0,97,-99.99,,,-99.99,,2013-03-08 06:31:00,
2013-03-07 22:42:00,33.0,32.0,26.23,SSW,211,3.0,6.0,97,-99.99,,,-99.99,,2013-03-08 06:42:00,
2013-03-07 22:51:00,34.0,34.0,26.23,SW,216,3.0,10.0,98,-99.99,,,-99.99,,2013-03-08 06:51:00,
2013-03-07 23:01:00,34.0,34.0,26.23,SW,216,3.0,10.0,98,-99.99,,,-99.99,,2013-03-08 07:01:00,
2013-03-07 23:11:00,34.0,34.0,26.23,SSW,213,3.0,8.0,98,-99.99,,,-99.99,,2013-03-08 07:11:00,
2013-03-07 23:21:00,34.0,34.0,26.26,SSW,211,3.0,9.0,98,-99.99,,,-99.99,,2013-03-08 07:21:00,
2013-03-07 23:31:00,34.0,34.0,26.26,SSW,208,3.0,7.0,98,-99.99,,,-99.99,,2013-03-08 07:31:00,
2013-03-07 23:41:00,34.0,34.0,26.26,SSW,208,3.0,7.0,98,-99.99,,,-99.99,,2013-03-08 07:41:00,
2013-03-07 23:51:00,34.0,34.0,26.26,SW,214,4.0,8.0,98,-99.99,,,-99.99,,2013-03-08 07:51:00,